Location: Julian California
(33.0790°N, 116.6010°W)
Time: 13:17:48
(UTC-07:00)

Cosmos 2058 Rocket - Pass Details

Date: 14 June 2018
Orbit: 611 x 639 km, 82.5° (Epoch: 18 June)

Event Time Altitude Azimuth Distance (km) Brightness Sun altitude
Rises 20:19:23 0° 6° (N) 2,915 6.9 -5.0°
Reaches altitude 10° 20:21:53 10° 17° (NNE) 1,999 5.9 -5.4°
Maximum altitude 20:25:45 29° 78° (ENE) 1,136 4.1 -6.1°
Drops below altitude 10° 20:29:34 10° 140° (SE) 1,973 5.0 -6.8°
Enters shadow 20:30:19 - 144° (SE) 2,241 5.3 -6.9°
